Temp
22 23 23 21 20 21 23 22 23 22 22 22 22 21 21 20 20 17 16 17 17 16 16 15 15 15 15 15 15 16 16 16 16 16 16 16 15 14 14 13 13 13 13 14 15 14 15 15 14
22 23 22 23 21 21 21 22 23 22 22 22 21 21 22 19 18 16 16 16 16 16 16 15 15 15 14 15 15 16 16 15 15 15 15 16 15 15 15 13 13 12 12 12 14 14 14 14 13
22 22 22 21 22 21 21 24 21 21 21 22 22 21 21 19 18 16 17 16 15 15 15 16 15 15 15 15 15 15 15 15 15 15 15 15 15 15 15 13 12 12 13 14 14 14 14 14 13
21 22 23 21 23 22 23 24 22 21 21 21 22 20 19 19 18 17 17 16 15 15 15 16 16 15 15 14 15 15 15 15 15 15 15 15 15 15 15 14 13 14 14 14 14 14 14 13 12
22 23 21 22 24 24 23 24 23 22 22 21 21 21 18 18 18 16 16 16 15 15 15 15 15 15 15 15 14 15 15 15 15 15 15 14 14 14 14 14 14 14 14 14 14 14 14 13 12
22 24 20 21 23 23 24 23 24 23 23 21 21 22 19 18 17 16 16 16 16 15 14 15 15 15 15 14 14 14 14 14 14 14 14 14 14 14 14 14 14 14 14 14 14 14 13 12 12
22 20 20 22 24 24 23 23 23 23 23 21 22 22 18 17 16 15 15 16 16 15 14 15 15 15 14 14 14 14 14 14 14 14 14 14 14 13 13 13 14 14 14 14 13 13 13 12 12
21 22 21 23 22 23 23 23 23 23 22 21 21 21 18 17 16 16 15 16 16 16 14 15 15 15 15 14 14 14 14 14 14 13 13 13 13 13 13 13 13 13 13 13 13 12 12 12 11
21 20 20 23 24 24 22 22 21 22 21 21 21 20 19 18 16 15 15 16 16 16 15 14 14 14 14 14 14 13 13 13 13 13 13 13 13 13 13 12 12 12 12 12 12 12 11 11 10
20 19 22 22 22 22 22 23 21 21 21 21 20 19 18 18 17 16 16 16 16 15 14 14 13 13 13 13 13 13 13 13 13 13 13 13 13 12 12 12 12 12 12 11 11 10 10 9 9
22 20 21 22 21 21 22 22 22 21 20 22 22 20 19 18 17 16 16 16 16 15 14 14 14 14 13 13 13 13 13 13 12 12 12 11 12 12 12 12 12 12 11 11 11 10 10 10 9
20 22 21 20 19 20 21 21 22 21 22 22 23 22 21 19 18 17 16 16 15 15 14 14 14 13 13 14 13 13 13 13 13 13 12 11 12 12 12 12 12 11 11 11 11 11 10 10 9
19 22 20 19 18 18 19 19 20 21 21 21 22 21 21 20 18 17 17 16 16 15 15 14 13 13 13 13 13 13 13 13 13 13 12 12 12 12 13 12 12 12 12 11 11 10 10 10 10
20 20 20 19 19 18 18 19 20 21 21 21 21 21 20 20 19 17 17 16 16 16 15 15 14 13 13 13 13 14 13 14 13 13 12 12 12 12 13 13 12 12 12 12 11 11 10 10 9
19 19 19 19 19 19 18 17 17 20 21 21 21 21 20 19 19 18 18 17 17 16 16 15 14 13 14 14 13 14 14 13 13 13 12 12 12 12 12 12 12 12 12 12 12 10 10 9 9
18 19 18 20 18 18 18 17 21 21 22 21 20 20 20 19 19 19 18 18 18 16 16 15 15 14 14 14 14 14 14 13 13 13 13 12 12 12 12 12 12 12 12 11 11 10 10 9 8
18 17 18 18 18 18 16 17 21 21 20 20 20 20 21 21 20 20 19 18 18 17 16 16 15 15 15 15 14 13 13 13 13 13 13 13 12 12 12 12 11 12 12 11 11 10 9 9 8
18 18 19 20 17 17 16 14 17 20 20 20 20 20 21 21 21 21 20 19 18 18 17 16 15 15 15 14 14 14 13 13 13 13 12 13 12 12 12 11 11 11 11 11 10 9 9 9 8
19 18 17 19 17 17 16 15 17 21 21 21 22 22 21 21 21 21 20 20 19 17 17 16 15 15 15 15 14 14 14 14 13 12 13 12 12 12 12 11 12 11 11 12 11 10 9 8 8
19 17 16 18 15 16 15 15 17 18 20 21 21 21 22 22 22 22 21 20 20 19 17 16 16 16 17 16 16 15 15 15 14 14 14 13 12 11 12 12 11 11 11 11 10 10 9 8 8
17 16 16 17 16 15 14 13 15 17 19 20 20 21 21 21 22 22 22 21 20 19 18 17 17 17 17 16 15 14 13 13 13 15 15 14 13 12 11 12 11 11 11 11 11 10 10 9 8
15 17 17 17 15 13 17 12 16 18 18 18 21 21 22 22 21 21 21 21 21 21 20 18 17 15 15 15 15 15 16 16 16 16 16 15 15 13 12 11 11 11 10 11 11 10 10 9 9
16 15 16 17 15 14 15 12 14 16 18 19 21 23 23 22 22 21 21 21 20 19 19 18 17 16 15 15 15 15 15 15 15 15 14 15 14 14 12 11 11 10 10 10 10 10 9 9 8
14 15 15 15 14 11 14 13 15 16 19 21 22 23 22 22 21 20 21 20 19 18 18 17 16 16 15 14 14 14 15 15 14 14 14 14 14 14 13 11 10 10 10 10 10 9 10 9 8
14 14 12 11 9 10 15 14 16 19 19 20 20 21 22 20 20 19 19 20 18 18 17 17 16 15 14 13 13 12 12 12 12 12 13 14 13 13 13 12 10 9 10 9 9 9 10 9 9
11 13 10 10 10 11 12 12 13 18 20 22 21 21 21 19 18 18 18 18 18 18 18 17 16 15 13 13 12 12 11 11 12 11 11 13 13 12 12 11 9 9 9 9 9 9 9 9 8
12 11 14 12 5 7 12 14 16 16 17 18 20 20 19 19 17 17 17 16 16 16 16 16 16 16 15 14 14 13 13 12 12 12 11 11 11 11 11 11 10 9 8 9 9 9 8 8 8
13 13 11 10 8 8 11 12 14 16 18 16 16 17 18 17 17 16 16 15 14 15 15 16 16 16 15 14 14 14 13 13 12 10 10 10 11 10 10 10 9 8 8 9 8 8 8 8 8
11 11 12 12 10 8 10 13 18 15 15 15 15 16 16 16 15 14 14 14 15 14 15 16 16 16 16 15 15 15 15 14 13 12 11 11 10 9 9 9 8 8 8 8 8 8 8 8 7
13 13 13 10 10 8 10 13 17 14 15 17 16 16 16 17 17 17 16 16 16 16 16 16 17 17 17 16 16 16 15 15 14 13 11 10 9 10 9 8 7 6 7 8 7 8 7 7 7
Height
1526 1526 1526 1526 1533 1522 1526 1532 1524 1531 1532 1536 1536 1538 1540 1541 1544 1557 1551 1554 1556 1558 1561 1564 1566 1568 1571 1572 1572 1572 1572 1573 1573 1573 1574 1574 1574 1574 1574 1575 1577 1576 1576 1575 1575 1575 1576 1576 1577
1526 1526 1526 1524 1531 1533 1535 1524 1528 1529 1533 1537 1539 1540 1539 1546 1546 1548 1552 1554 1556 1558 1562 1564 1567 1569 1571 1573 1574 1575 1575 1575 1575 1575 1575 1576 1576 1576 1576 1578 1579 1578 1578 1577 1577 1578 1579 1579 1580
1527 1526 1528 1524 1524 1534 1535 1522 1527 1532 1535 1537 1539 1541 1542 1547 1548 1550 1552 1555 1557 1560 1561 1564 1567 1570 1572 1574 1576 1576 1576 1576 1576 1577 1578 1578 1578 1578 1578 1579 1580 1580 1579 1579 1580 1580 1581 1583 1583
1526 1528 1527 1530 1526 1524 1524 1523 1526 1533 1537 1537 1539 1541 1545 1547 1549 1550 1553 1556 1558 1561 1562 1565 1568 1570 1573 1575 1576 1577 1578 1578 1578 1579 1579 1580 1580 1580 1580 1580 1581 1581 1581 1581 1582 1583 1583 1585 1585
1526 1526 1530 1527 1521 1521 1524 1525 1527 1532 1534 1537 1539 1541 1545 1548 1548 1550 1553 1557 1559 1562 1563 1565 1568 1570 1573 1575 1577 1578 1578 1579 1579 1580 1581 1581 1581 1581 1582 1582 1582 1583 1582 1583 1584 1585 1586 1588 1587
1527 1525 1533 1533 1524 1522 1523 1527 1528 1530 1533 1537 1540 1540 1545 1546 1548 1551 1554 1557 1559 1561 1563 1566 1568 1570 1572 1575 1576 1578 1579 1579 1580 1582 1582 1582 1583 1583 1583 1584 1583 1584 1584 1585 1587 1587 1588 1589 1589
1526 1527 1531 1525 1522 1522 1522 1527 1528 1531 1533 1536 1539 1539 1545 1545 1548 1551 1555 1558 1559 1561 1563 1565 1567 1570 1572 1574 1576 1578 1579 1580 1581 1583 1583 1584 1584 1584 1585 1585 1585 1585 1586 1587 1588 1589 1590 1590 1590
1526 1525 1529 1523 1527 1525 1524 1527 1529 1530 1534 1536 1538 1540 1543 1544 1548 1550 1554 1558 1560 1562 1563 1564 1567 1569 1571 1573 1576 1578 1579 1580 1582 1583 1584 1584 1584 1585 1585 1586 1586 1587 1587 1589 1589 1590 1591 1591 1592
1527 1531 1534 1524 1520 1522 1525 1527 1530 1530 1533 1536 1537 1540 1542 1543 1547 1550 1554 1557 1559 1561 1562 1565 1566 1568 1570 1573 1575 1576 1578 1580 1581 1582 1583 1584 1584 1585 1586 1586 1587 1588 1589 1590 1590 1591 1592 1593 1593
1527 1531 1526 1520 1519 1523 1525 1528 1529 1531 1533 1535 1537 1539 1541 1542 1544 1547 1551 1554 1557 1559 1561 1563 1565 1567 1569 1571 1574 1575 1577 1578 1580 1582 1583 1584 1585 1586 1587 1587 1588 1589 1590 1591 1591 1592 1593 1594 1593
1524 1527 1522 1522 1523 1524 1526 1528 1528 1530 1531 1530 1532 1534 1538 1540 1543 1545 1548 1551 1553 1557 1559 1560 1563 1565 1567 1569 1572 1573 1575 1577 1578 1581 1581 1582 1584 1586 1587 1588 1589 1590 1591 1591 1592 1593 1593 1594 1594
1526 1522 1522 1524 1525 1527 1527 1527 1526 1528 1528 1528 1530 1530 1533 1536 1539 1541 1544 1547 1549 1551 1554 1557 1559 1562 1564 1567 1569 1571 1572 1574 1576 1578 1580 1580 1583 1585 1586 1588 1589 1590 1591 1592 1592 1593 1593 1594 1594
1525 1521 1523 1524 1525 1527 1527 1527 1527 1524 1526 1527 1528 1530 1532 1534 1536 1539 1541 1544 1547 1549 1551 1552 1555 1557 1560 1563 1565 1567 1569 1571 1573 1575 1577 1578 1580 1582 1584 1587 1587 1589 1590 1591 1592 1593 1593 1594 1594
1522 1522 1522 1524 1525 1526 1527 1526 1526 1520 1521 1523 1525 1527 1529 1530 1533 1536 1539 1540 1543 1544 1547 1548 1550 1554 1556 1558 1561 1563 1566 1568 1570 1572 1573 1575 1578 1579 1581 1583 1585 1587 1588 1589 1590 1591 1592 1593 1594
1525 1525 1522 1523 1524 1525 1527 1527 1522 1516 1519 1520 1521 1523 1525 1527 1529 1530 1532 1534 1537 1540 1542 1544 1545 1548 1550 1553 1557 1559 1563 1565 1568 1569 1570 1572 1574 1576 1578 1580 1582 1584 1586 1587 1589 1590 1590 1591 1592
1525 1524 1528 1516 1522 1524 1527 1529 1512 1513 1514 1515 1517 1520 1521 1522 1523 1525 1527 1529 1532 1535 1537 1539 1541 1543 1545 1548 1552 1554 1558 1561 1562 1566 1567 1569 1569 1572 1574 1577 1578 1580 1582 1583 1586 1588 1588 1590 1590
1523 1533 1525 1524 1521 1523 1527 1524 1512 1512 1513 1513 1513 1515 1516 1517 1517 1518 1520 1523 1524 1528 1530 1532 1535 1536 1539 1543 1547 1550 1553 1556 1559 1561 1562 1564 1566 1567 1568 1573 1574 1576 1577 1580 1582 1584 1586 1587 1588
1527 1527 1519 1517 1522 1523 1526 1524 1516 1512 1512 1509 1509 1509 1510 1511 1511 1512 1513 1515 1518 1520 1523 1525 1527 1529 1534 1538 1541 1544 1546 1550 1553 1556 1558 1559 1561 1562 1563 1565 1569 1571 1573 1575 1578 1580 1582 1583 1584
1518 1521 1524 1515 1519 1521 1523 1519 1513 1509 1505 1503 1503 1501 1501 1502 1505 1507 1507 1508 1511 1513 1516 1518 1520 1522 1526 1529 1531 1534 1536 1540 1544 1547 1550 1553 1555 1557 1558 1559 1562 1566 1568 1570 1572 1575 1576 1577 1578
1518 1524 1526 1518 1520 1522 1520 1516 1506 1504 1498 1495 1495 1494 1494 1495 1497 1498 1500 1501 1501 1504 1507 1510 1512 1514 1517 1521 1524 1527 1530 1533 1536 1539 1541 1544 1547 1551 1551 1552 1555 1559 1562 1563 1565 1567 1570 1571 1572
1521 1525 1524 1525 1520 1518 1520 1518 1503 1490 1487 1488 1488 1487 1489 1488 1489 1492 1493 1493 1494 1497 1500 1503 1505 1506 1509 1514 1518 1521 1525 1527 1527 1528 1531 1534 1538 1542 1544 1545 1548 1552 1555 1556 1559 1562 1563 1564 1566
1528 1516 1518 1521 1528 1538 1516 1536 1501 1492 1486 1484 1482 1481 1480 1482 1483 1485 1488 1488 1488 1489 1492 1495 1498 1501 1503 1507 1509 1511 1512 1514 1517 1520 1523 1527 1530 1533 1535 1538 1541 1544 1547 1549 1550 1555 1556 1558 1558
1519 1518 1519 1520 1528 1530 1523 1538 1503 1489 1488 1482 1477 1475 1476 1478 1479 1480 1481 1483 1483 1485 1486 1489 1491 1494 1496 1498 1501 1503 1505 1507 1510 1513 1517 1519 1522 1524 1526 1529 1532 1535 1538 1541 1545 1546 1547 1549 1553
1515 1520 1523 1523 1529 1543 1521 1525 1501 1492 1481 1475 1472 1474 1476 1477 1477 1478 1478 1479 1480 1481 1481 1483 1485 1486 1489 1491 1493 1495 1496 1498 1501 1503 1507 1510 1512 1515 1516 1519 1522 1526 1528 1531 1535 1539 1538 1542 1544
1515 1524 1543 1550 1555 1542 1508 1515 1489 1476 1471 1473 1474 1474 1476 1476 1476 1475 1475 1476 1476 1477 1478 1479 1479 1480 1482 1485 1487 1490 1492 1494 1496 1498 1497 1499 1504 1506 1508 1511 1513 1516 1519 1522 1527 1529 1529 1531 1535
1519 1518 1538 1550 1547 1531 1518 1516 1494 1470 1470 1471 1472 1472 1472 1474 1474 1473 1473 1471 1472 1473 1473 1474 1474 1475 1478 1480 1482 1484 1487 1488 1490 1492 1490 1492 1495 1499 1502 1504 1506 1509 1512 1516 1519 1521 1522 1527 1527
1515 1521 1508 1524 1544 1545 1513 1489 1473 1469 1471 1470 1470 1471 1471 1472 1472 1471 1471 1470 1468 1469 1470 1471 1472 1473 1474 1475 1477 1478 1480 1481 1482 1484 1484 1484 1486 1490 1493 1496 1497 1501 1505 1508 1510 1514 1515 1519 1522
1503 1504 1522 1525 1544 1546 1510 1505 1490 1476 1472 1471 1470 1471 1472 1472 1471 1469 1467 1468 1467 1467 1467 1468 1469 1470 1471 1472 1473 1474 1475 1476 1477 1478 1477 1476 1478 1481 1484 1487 1489 1492 1497 1499 1501 1504 1510 1512 1514
1508 1509 1506 1507 1515 1530 1522 1497 1463 1473 1473 1473 1473 1474 1473 1471 1470 1468 1466 1465 1465 1465 1466 1466 1467 1468 1468 1469 1470 1469 1470 1471 1471 1471 1470 1470 1470 1473 1475 1478 1482 1485 1489 1492 1495 1497 1500 1503 1507
1494 1494 1499 1514 1513 1516 1513 1484 1463 1466 1469 1470 1472 1472 1472 1470 1470 1469 1467 1467 1467 1467 1467 1466 1466 1468 1468 1468 1468 1466 1465 1465 1464 1464 1464 1464 1463 1464 1467 1470 1474 1477 1481 1485 1486 1488 1491 1495 1497
Wind_Speed
4 2 6 6 3 3 3 4 6 6 5 4 9 6 3 14 5 3 10 13 18 18 18 14 12 12 11 7 9 9 11 12 12 13 12 12 13 15 16 20 13 8 8 12 14 15 16 18 21
2 1 3 6 3 2 4 8 5 7 12 8 5 1 1 4 7 12 18 13 17 17 17 14 12 12 11 8 8 9 9 10 12 13 13 12 12 12 13 19 12 10 12 13 15 15 17 20 22
1 2 3 3 3 5 4 4 10 13 9 6 4 1 4 5 8 22 13 19 18 16 13 15 13 12 12 10 8 8 8 9 10 11 11 11 11 11 13 16 11 8 10 13 15 16 17 19 23
4 2 5 2 4 7 7 5 19 12 4 3 2 7 5 8 11 13 18 19 19 16 13 14 14 14 13 10 9 8 8 8 8 8 10 11 11 10 10 10 9 6 11 13 14 15 17 19 23
2 3 3 4 3 5 6 8 11 6 10 10 3 5 5 10 13 12 22 20 20 17 15 15 15 15 13 11 9 8 7 7 7 7 8 9 9 9 9 8 8 8 11 12 13 14 16 18 19
4 3 4 5 5 6 6 6 6 7 10 9 3 1 6 7 11 18 21 19 17 17 16 17 17 15 13 11 9 7 7 7 6 6 7 8 8 8 7 7 8 9 10 11 12 13 15 17 18
3 3 8 7 4 1 5 6 4 6 10 7 2 1 8 8 13 20 19 19 13 17 16 18 17 16 14 12 10 8 7 7 6 6 6 6 6 6 6 6 8 9 10 10 11 13 14 15 16
4 2 7 5 5 2 6 7 2 4 3 10 6 4 6 12 15 17 19 18 17 16 16 17 18 17 16 15 13 11 9 8 7 6 5 4 6 7 7 7 8 9 10 10 12 13 14 14 14
3 2 4 6 3 2 10 5 2 3 6 5 3 1 7 12 18 17 18 20 20 17 18 17 17 18 17 16 15 13 11 9 8 7 6 4 5 6 9 9 9 9 10 11 12 13 13 14 13
3 3 5 8 10 6 7 6 11 3 7 6 7 8 12 15 15 21 22 23 25 20 20 20 20 17 17 16 16 15 14 13 12 10 8 6 6 5 7 9 10 10 10 11 12 13 14 12 11
4 3 6 9 9 5 4 4 3 5 5 12 14 17 16 16 15 22 24 25 28 23 22 23 23 22 21 20 17 18 17 16 15 13 13 9 5 4 7 6 8 8 8 9 10 11 11 11 10
3 6 3 3 3 2 2 4 6 13 7 3 6 6 17 19 19 21 23 25 24 24 25 25 24 24 23 22 20 19 19 19 18 16 17 16 10 8 8 7 7 8 9 8 6 5 6 8 11
3 2 3 2 1 2 5 7 7 13 15 15 12 7 15 17 19 19 21 22 24 26 27 27 27 27 26 25 25 23 22 20 20 19 21 19 16 14 12 12 10 10 8 7 6 4 6 7 9
4 5 2 4 5 4 2 7 6 6 11 17 15 15 16 19 19 20 22 26 27 28 29 29 28 29 29 28 28 27 24 22 21 22 23 23 21 19 18 15 14 14 12 12 10 10 9 9 9
1 3 6 10 7 2 2 7 11 21 14 10 14 18 17 21 21 24 25 28 30 32 31 33 33 30 32 35 32 30 26 27 25 25 24 24 23 25 21 19 19 16 16 16 14 12 12 10 9
4 2 2 3 11 4 4 6 6 4 16 18 13 16 20 22 25 26 27 28 29 32 35 34 36 35 35 33 33 31 30 30 28 24 25 27 26 26 25 24 23 22 22 20 16 17 16 13 12
5 4 6 4 9 4 6 5 3 1 3 9 13 17 20 23 24 28 30 31 32 33 36 38 37 38 37 33 34 34 34 31 31 32 29 26 28 30 30 25 27 25 23 23 20 20 20 17 17
6 4 6 4 6 1 5 11 12 23 18 17 17 18 19 20 25 27 29 30 34 35 36 38 37 39 37 36 35 36 37 36 34 34 36 35 30 30 32 31 30 28 28 26 24 24 25 22 19
3 5 8 5 3 2 7 11 10 20 24 20 22 24 26 28 28 26 28 31 31 36 35 37 39 40 39 39 40 40 41 38 37 35 36 39 36 34 35 35 33 31 31 29 28 30 31 29 26
1 6 8 8 6 2 7 12 12 13 22 28 28 28 28 29 28 28 30 32 33 34 38 39 41 42 40 40 41 42 40 39 39 38 38 40 40 38 38 40 38 34 35 36 37 36 35 34 29
6 7 7 8 2 6 4 8 10 11 28 28 29 32 31 32 31 26 26 33 35 34 36 41 43 43 42 40 41 41 40 40 42 43 42 41 42 42 43 44 42 38 38 39 38 38 37 38 35
6 3 8 5 5 3 2 6 7 10 9 9 22 25 28 26 24 22 23 25 35 35 32 36 40 42 42 40 42 43 45 45 45 43 41 39 41 43 44 46 46 42 42 43 43 37 42 45 37
3 4 3 1 3 5 4 4 7 9 7 9 11 23 23 21 17 16 15 21 28 29 33 31 34 39 42 43 43 43 44 44 43 42 40 39 38 41 45 47 46 46 48 43 45 37 47 46 40
7 4 2 1 2 6 9 8 4 7 4 2 3 5 2 3 6 9 13 19 21 26 29 30 31 35 39 42 43 44 45 45 44 43 42 40 38 38 43 47 48 46 46 44 46 44 45 46 48
2 5 1 2 0 7 3 3 9 7 8 4 5 13 11 16 11 11 13 13 16 20 24 27 29 31 34 38 41 42 43 43 43 42 43 42 39 38 42 45 47 47 48 47 43 46 54 43 50
8 7 5 7 4 5 4 9 6 3 3 6 8 15 19 18 15 17 20 18 15 15 18 20 23 26 29 32 36 38 39 41 42 41 44 44 42 39 38 42 44 47 46 45 45 44 45 42 50
6 7 7 4 2 3 5 10 12 7 6 8 16 18 18 17 14 15 17 15 19 20 19 18 18 18 22 24 27 30 32 36 38 39 42 44 43 39 36 39 40 45 44 46 46 46 40 42 41
3 1 2 2 3 5 7 7 11 10 14 9 6 8 10 13 15 14 11 12 16 17 14 14 13 13 13 16 19 21 23 27 30 34 39 42 42 39 37 38 37 42 41 47 45 40 38 42 41
2 4 3 2 5 5 5 7 5 6 5 6 8 11 11 11 11 13 6 10 10 10 9 8 7 7 9 12 15 17 18 21 24 29 33 36 38 37 37 36 35 40 41 42 41 47 43 40 40
3 6 10 4 4 3 5 16 2 1 3 4 8 8 9 11 14 14 16 16 12 9 7 3 4 9 14 16 18 18 19 20 23 27 30 32 35 34 33 33 34 37 40 42 48 45 48 45 46
Wind_Direction
226 295 307 316 263 207 109 80 100 101 114 58 62 34 32 51 17 111 148 152 164 157 156 156 147 141 143 131 97 87 86 84 87 90 90 93 97 103 105 112 104 114 104 97 92 89 90 93 95
227 306 341 283 250 246 75 122 126 99 90 100 92 1 334 92 70 137 143 160 164 172 167 169 157 154 149 134 112 100 93 91 89 87 85 85 89 96 98 108 108 111 103 100 91 90 94 96 97
132 51 316 230 279 40 89 53 101 90 112 132 131 65 23 79 109 144 164 156 166 160 184 173 169 163 157 148 129 117 107 96 91 86 85 84 88 95 106 115 122 122 111 94 90 93 97 99 100
93 262 265 263 301 68 50 72 108 121 107 125 22 120 102 103 134 162 164 157 154 165 192 175 174 168 164 159 146 136 126 116 105 91 82 80 84 93 105 121 130 97 89 93 94 99 102 103 106
81 275 260 234 27 87 91 77 130 165 132 144 169 125 101 132 171 162 149 161 160 164 184 190 181 174 172 170 159 147 136 127 119 107 94 85 84 89 100 109 102 94 96 98 101 103 104 108 112
249 258 275 238 93 99 98 131 150 155 124 103 162 229 104 194 182 154 155 164 176 174 181 190 183 179 179 178 173 163 155 142 132 122 101 87 84 91 96 99 100 103 100 103 106 109 110 114 116
266 230 275 323 60 240 113 147 182 171 134 165 84 322 132 175 157 159 165 164 192 191 196 192 187 182 185 185 188 183 174 164 159 143 116 91 84 93 101 103 105 107 109 111 113 114 119 122 121
296 266 277 272 289 75 108 154 181 196 110 134 144 355 146 186 169 172 167 173 191 200 206 200 194 194 193 192 194 195 190 184 178 168 153 120 105 103 104 108 110 115 118 119 117 119 123 123 126
262 302 258 260 194 53 124 173 144 188 116 145 172 152 113 178 182 168 175 177 194 200 207 198 204 201 203 203 200 199 201 199 196 190 182 152 126 117 115 113 112 116 123 124 123 124 128 128 127
227 192 259 18 33 24 130 232 151 157 198 195 190 227 149 191 191 177 181 187 193 200 208 205 202 200 200 206 207 206 209 212 210 204 198 202 194 147 141 130 124 122 126 128 130 132 132 133 127
216 243 32 56 52 51 352 208 262 182 248 208 212 220 192 202 194 188 192 198 207 202 211 211 211 208 203 210 214 214 214 216 215 207 205 214 217 186 178 168 148 138 133 134 140 147 154 158 146
289 240 39 42 50 31 300 298 235 223 218 174 203 207 210 206 206 202 205 200 210 207 211 212 215 213 210 214 215 220 216 214 219 211 206 214 213 214 211 202 189 169 155 161 161 164 172 171 165
235 251 97 112 80 212 289 265 253 264 252 249 251 213 210 219 215 215 212 210 209 210 214 217 211 212 211 211 217 220 218 217 223 221 213 222 217 217 216 225 212 213 197 214 183 196 197 197 188
4 351 244 173 198 209 240 275 239 255 243 235 247 237 209 229 225 219 214 215 211 218 217 223 221 213 210 211 218 221 217 225 227 226 226 229 219 224 221 219 210 221 230 224 212 221 204 203 205
324 279 214 224 207 179 204 281 237 247 236 223 226 236 243 220 228 224 229 220 219 216 224 215 227 218 213 214 218 222 217 223 229 228 229 232 228 224 226 222 223 230 235 229 237 220 210 216 220
236 210 236 10 142 165 142 266 299 186 222 223 234 241 241 239 234 236 231 234 226 220 220 224 224 229 223 224 222 228 224 219 229 227 232 235 236 232 226 223 224 225 230 227 230 227 222 216 216
200 261 211 158 181 131 182 284 37 244 241 251 249 251 247 244 239 241 239 230 235 226 225 229 230 230 230 227 223 227 232 230 225 230 235 233 235 235 235 228 226 232 234 232 226 229 226 219 205
224 218 244 231 180 183 240 258 282 284 272 248 251 251 250 246 243 246 249 244 230 235 229 231 232 234 232 227 228 228 233 234 232 228 230 239 237 236 239 229 231 231 232 228 230 229 218 218 207
355 321 330 347 132 159 236 261 259 271 271 261 257 253 251 251 252 251 247 249 244 235 233 229 230 234 233 228 227 229 232 235 235 230 229 227 232 235 234 233 232 232 235 239 236 230 219 208 207
172 286 289 287 115 157 276 275 268 259 261 253 253 255 254 257 256 250 245 244 245 244 234 230 232 235 237 233 234 234 238 241 244 245 237 236 232 230 232 236 238 240 235 232 227 230 224 209 214
234 236 258 256 174 213 287 270 259 248 242 256 256 257 260 256 257 254 244 239 244 247 241 235 235 238 240 237 234 236 237 240 241 245 244 241 240 238 235 238 238 240 238 241 237 235 234 219 215
254 296 240 288 337 255 46 288 294 308 289 231 245 250 257 266 265 260 246 247 242 253 254 244 237 235 239 239 237 238 239 240 245 247 251 247 244 239 236 238 239 240 238 241 233 244 238 229 227
212 17 45 14 290 292 205 263 260 232 260 256 259 263 267 267 267 256 256 242 248 249 251 249 245 239 238 240 240 240 241 244 248 250 251 251 247 241 237 237 241 238 240 239 244 245 231 237 228
124 92 87 136 206 275 176 201 226 223 237 258 241 329 0 291 253 259 250 248 245 246 247 249 249 244 240 240 240 240 243 244 244 248 250 250 249 244 237 237 238 238 237 239 240 251 242 233 227
189 150 253 304 147 238 78 284 235 311 305 209 281 294 288 302 280 294 293 278 251 247 248 251 249 245 240 239 242 242 243 246 248 249 253 253 252 248 242 237 238 234 235 240 242 239 239 230 238
199 186 172 203 198 265 354 241 254 178 21 315 302 298 299 301 305 303 303 280 258 247 250 248 245 242 240 241 243 245 245 248 252 251 255 258 256 254 251 243 244 235 235 238 243 238 242 250 241
193 206 234 318 60 10 229 272 291 265 227 268 280 290 294 308 313 304 301 280 270 263 257 254 252 248 245 247 248 250 252 252 253 254 255 260 261 256 254 248 244 235 239 240 236 250 238 247 245
167 253 126 246 186 227 261 271 246 311 299 293 312 17 356 333 322 323 305 273 259 267 257 253 252 251 249 249 252 256 257 257 258 256 256 261 264 261 255 248 245 235 236 242 239 236 245 246 239
133 228 230 161 187 183 255 257 178 131 98 62 40 359 340 339 349 1 314 300 280 269 255 243 250 274 281 271 260 261 263 264 262 260 260 262 264 260 256 250 248 236 235 239 242 244 242 242 240
240 236 206 185 242 230 230 264 95 315 91 65 338 6 353 13 6 18 22 12 349 314 276 256 5 327 315 295 274 266 265 265 265 264 262 264 264 264 255 249 245 241 238 238 244 241 237 241 244